Home > Weather > Sendai > Past weeks

Flag for Japan Weather for the Past 2 Weeks in Sendai, Japan

Now
45 °F

Broken clouds.


Feels Like: 41 °F
Forecast: 32 / 38 °F
Wind: 6 mph from Southeast

Location: Sendai Airport

Current Time: Feb 9, 2016 at 12:56:03 PM

Latest Report: Feb 9, 2016 at 12:00 PM


Visibility: N/A

Pressure: 29.68 "Hg

Humidity: 49%

Dew point: 27 °F

Location of SendaiLocation

Historic Weather in Sendai — Graph

°F

Sendai Temperature Yesterday

Maximum temperature yesterday: 41 °F (at 2:00 PM)
Minimum temperature yesterday: 23 °F (at 6:00 AM)
Average temperature yesterday: 35 °F

High & Low Weather Summary for the Past Weeks

 TemperatureHumidityPressure
High50 °F (Jan 27, 1:00 PM)100% (Jan 30, 7:00 AM)30.39 "Hg (Jan 30, 7:00 AM)
Low21 °F (Jan 26, 7:00 AM)33% (Feb 7, 11:00 AM)29.68 "Hg (Feb 9, 12:00 PM)
Average36 °F64%30.10 "Hg
* Reported Jan 25 12:00 Noon — Feb 9 12:00 Noon, Sendai, Weather by CustomWeather, © 2016

Note: Actual official high and low records may vary slightly from our data, if they occured in-between our weather recording intervals... More about our weather records

Advertising

Sendai Weather History for the Previous 24 Hours

 ConditionsComfort  
Time TempWeatherWind HumidityBarometerVisibility
12:00 PM
Tue, Feb 9
45 °FBroken clouds.6 mph49%29.68 "HgN/A
11:00 AM46 °FPartly sunny.2 mph40%29.71 "HgN/A
10:00 AM45 °FPartly sunny.7 mph46%29.74 "HgN/A
9:00 AM39 °FPartly sunny.8 mph61%29.77 "HgN/A
8:00 AM36 °FPassing clouds.6 mph75%29.77 "HgN/A
7:00 AM32 °FPassing clouds.6 mph80%29.80 "HgN/A
6:00 AM32 °FPassing clouds.3 mph80%29.80 "HgN/A
9:00 PM
Mon, Feb 8
34 °FPassing clouds.3 mph75%30.01 "HgN/A
8:00 PM34 °FPartly cloudy.5 mph75%30.01 "HgN/A
7:00 PM37 °FPassing clouds.5 mph65%30.04 "HgN/A
6:00 PM39 °FPassing clouds.7 mph61%30.04 "HgN/A
5:00 PM39 °FPassing clouds.8 mph52%30.04 "HgN/A
4:00 PM41 °FPassing clouds.9 mph45%30.04 "HgN/A
3:00 PM41 °FPassing clouds.10 mph42%30.04 "HgN/A
2:00 PM41 °FPassing clouds.9 mph45%30.04 "HgN/A
1:00 PM39 °FPassing clouds.12 mph45%30.07 "HgN/A
12:00 PM39 °FPassing clouds.7 mph36%30.09 "HgN/A
Weather by CustomWeather, © 2016

See weather overviewHow to use our weather pages